"Time","Temp","Dewpoint","Humidity","Pressure","Direction","Speed","Gust","Precip","PrecipRate"
"00:04:56","50.5","49.7","97","29.82","341","3.1","10.4","0.00","0.01"
"00:09:58","50.6","49.8","97","29.82","345","3.2","9.2","0.00","0.01"
"00:14:59","50.6","49.8","97","29.82","348","4.2","15","0.00","0.01"
"00:19:59","50.6","49.9","97.4","29.81","348","2.8","9.6","0.00","0.01"
"00:24:56","50.6","49.9","97.6","29.81","344","3.3","7.2","0.00","0.01"
"00:29:57","50.5","49.9","97.4","29.81","330","3.1","10.8","0.00","0.01"
"00:34:57","50.6","49.9","97.4","29.81","343","2.6","10.8","0.00","0.01"
"00:39:58","50.6","49.8","97.2","29.81","355","1.3","6","0.01","0.01"
"00:44:59","50.6","49.9","97.2","29.81","349","3.4","10.8","0.01","0.01"
"00:49:59","50.6","49.8","97","29.81","340","2.9","7.2","0.01","0.01"
"00:54:56","50.6","49.9","97.3","29.81","329","2.6","10.8","0.01","0.01"
"00:59:57","50.6","49.9","97.4","29.81","336","2.1","8.4","0.01","0.01"
"01:04:57","50.7","50","97.4","29.81","345","1.8","8.4","0.01","0.01"
"01:09:56","50.7","49.9","97","29.81","328","3.6","8.1","0.01","0.01"
"01:14:58","50.6","50","97.4","29.81","306","2","6","0.01","0.01"
"01:19:59","50.6","49.9","97.3","29.81","351","3.7","9.6","0.01","0.01"
"01:24:56","50.7","50.2","98","29.81","330","2.3","4.8","0.01","0.01"
"01:29:57","50.7","50.1","97.8","29.81","338","2.4","6","0.01","0.01"
"01:34:56","50.7","50.2","98","29.81","336","1.4","4.6","0.01","0.01"
"01:39:57","50.7","50.2","98","29.81","2","1","6","0.01","0.01"
"01:44:58","50.7","50.1","97.8","29.81","353","1.5","6","0.01","0.00"
"01:49:58","50.7","50.2","98","29.80","335","1.3","5.8","0.01","0.00"
"01:54:59","50.7","50.2","98","29.80","347","2.2","7.2","0.01","0.00"
"01:59:56","50.7","50.2","98","29.80","353","0.5","7.2","0.01","0.00"
"02:04:57","50.7","50.2","98","29.80","353","2.3","6.9","0.01","0.00"
"02:09:56","50.7","50.2","98","29.80","347","2.4","7.2","0.01","0.00"
"02:14:58","50.6","50.1","98","29.80","323","2.2","7.2","0.01","0.00"
"02:19:58","50.6","50.1","98","29.80","321","2.1","6","0.01","0.00"
"02:24:56","50.6","50.1","98","29.80","333","2.4","7.2","0.01","0.00"
"02:29:56","50.6","50.1","98","29.80","331","1.6","5.8","0.01","0.00"
"02:34:56","50.6","50.1","98","29.80","322","1.6","4.8","0.01","0.00"
"02:39:57","50.6","50.1","98","29.80","332","2","6","0.02","0.01"
"02:44:57","50.6","50.1","98","29.80","322","1.1","6","0.02","0.01"
"02:49:58","50.6","50.1","98","29.80","323","1.4","4.8","0.02","0.01"
"02:54:58","50.6","50.1","98","29.80","332","1.7","6","0.02","0.01"
"02:59:58","50.7","50.2","98","29.80","293","1.8","4.8","0.02","0.01"
"03:04:56","50.7","50.2","98","29.80","300","1.2","4.8","0.02","0.01"
"03:09:56","50.7","50.2","98","29.80","343","1.7","6","0.02","0.01"
"03:14:57","50.7","50.2","98","29.80","327","1.8","5.8","0.02","0.01"
"03:19:58","50.7","50.2","98","29.80","7","1","6","0.02","0.01"
"03:24:59","50.8","50.3","98","29.80","354","1.3","7.2","0.02","0.01"
"03:29:56","50.8","50.3","98","29.80","348","1.2","6","0.03","0.02"
"03:34:57","50.8","50.3","98","29.80","330","2.1","6","0.03","0.02"
"03:39:58","50.8","50.3","98","29.80","351","2.2","5.8","0.03","0.02"
"03:44:58","50.8","50.3","98","29.80","351","1.2","4.8","0.03","0.01"
"03:49:57","50.9","50.4","98","29.80","345","1.1","3.6","0.03","0.01"
"03:54:58","50.9","50.4","98","29.80","340","1.4","4.8","0.03","0.01"
"03:59:56","50.9","50.4","98","29.80","344","0.8","4.8","0.03","0.01"
"04:04:58","50.9","50.4","98","29.80","350","0.7","3.6","0.03","0.01"
"04:09:57","50.9","50.4","98","29.80","341","1.1","3.6","0.03","0.01"
"04:14:58","50.9","50.4","98","29.80","331","0.2","3.6","0.03","0.01"
"04:19:59","50.9","50.4","98","29.80","331","0.9","3.5","0.03","0.01"
"04:24:56","50.9","50.4","98","29.80","337","1.2","4.8","0.03","0.01"
"04:29:56","50.8","50.3","98","29.80","333","1.4","4.8","0.03","0.01"
"04:34:56","50.8","50.3","98","29.80","335","2.1","6","0.03","0.00"
"04:39:58","50.7","50.2","98","29.80","4","1.5","4.8","0.03","0.00"
"04:44:58","50.7","50.2","98","29.81","5","1.1","3.6","0.03","0.00"
"04:49:59","50.7","50.2","98","29.81","320","1.4","7.2","0.03","0.00"
"04:54:59","50.6","50.1","98","29.81","327","2","6.9","0.03","0.00"
"04:59:56","50.5","50","98","29.81","345","1.8","4.8","0.03","0.00"
"05:04:56","50.5","50","98","29.80","346","0.7","3.6","0.03","0.00"
"05:09:59","50.4","49.9","98","29.80","343","0.5","3.6","0.03","0.00"
"05:14:56","50.4","49.9","98","29.80","348","2.2","7.2","0.03","0.00"
"05:19:56","50.3","49.8","98","29.80","318","1.9","6.9","0.03","0.00"
"05:24:59","50.3","49.8","98","29.80","334","0.9","4.8","0.03","0.00"
"05:29:59","50.2","49.7","98","29.80","327","2.3","8.4","0.03","0.00"
"05:34:59","50.2","49.7","98","29.80","322","2.1","6","0.03","0.00"
"05:39:56","50.1","49.6","98","29.80","329","1.6","4.8","0.03","0.00"
"05:44:56","50.1","49.6","98","29.80","335","2.1","7.2","0.03","0.00"
"05:49:57","50.1","49.6","98","29.80","8","1.3","5.8","0.03","0.00"
"05:54:57","50.1","49.6","98","29.80","318","1.4","4.8","0.03","0.00"
"05:59:58","50.1","49.6","98","29.81","326","0.9","4.8","0.03","0.00"
"06:04:58","50.1","49.6","98","29.81","2","2.1","6","0.03","0.00"
"06:09:58","50.1","49.6","98","29.81","352","1.1","4.8","0.03","0.00"
"06:14:56","50.1","49.6","98","29.82","334","1.8","3.6","0.03","0.00"
"06:19:57","50.1","49.6","98","29.82","344","0.9","4.8","0.03","0.00"
"06:24:58","50.1","49.6","98","29.82","339","0.7","3.6","0.03","0.00"
"06:29:59","50.1","49.6","98","29.82","350","1.5","6","0.03","0.00"
"06:34:59","50.1","49.6","98","29.82","353","1.5","4.8","0.03","0.00"
"06:39:56","50.1","49.6","98","29.82","1","0.8","3.6","0.03","0.00"
"06:44:57","50.1","49.6","98","29.82","84","0.5","2.4","0.03","0.00"
"06:49:57","50.2","49.7","98","29.82","34","0.6","3.6","0.03","0.00"
"06:54:57","50.3","49.8","98","29.82","290","0.1","1.2","0.03","0.00"
"06:59:58","50.4","49.9","98","29.83","290","0.6","3.6","0.03","0.00"
"07:04:59","50.4","49.9","98","29.83","324","1.8","4.8","0.03","0.00"
"07:09:58","50.5","50","98","29.83","327","0.8","3.6","0.03","0.00"
"07:14:59","50.5","50","98","29.84","329","1.1","4.8","0.03","0.00"
"07:19:56","50.6","50.1","98","29.84","329","0.2","2.4","0.03","0.00"
"07:24:56","50.6","50.1","98","29.84","323","0.8","4.8","0.03","0.00"
"07:29:57","50.7","50.2","98","29.85","328","0.9","4.8","0.03","0.00"
"07:34:57","50.8","50.3","98","29.85","329","0.6","3.5","0.03","0.00"
"07:39:58","50.9","50.4","98","29.85","328","1.4","4.8","0.03","0.00"
"07:44:59","50.9","50.4","98","29.85","328","1.1","4.8","0.03","0.00"
"07:49:56","50.9","50.4","98","29.85","328","1.4","4.8","0.03","0.00"
"07:54:57","51","50.5","98","29.85","339","1.1","4.8","0.03","0.00"
"07:59:59","51.2","50.7","98","29.85","339","0.2","2.3","0.03","0.00"
"08:04:56","51.4","50.9","98","29.84","349","0.8","4.8","0.03","0.00"
"08:09:59","51.5","51","98","29.84","13","1.4","4.8","0.03","0.00"
"08:14:57","51.5","50.7","97.1","29.85","358","1.2","4.8","0.03","0.00"
"08:19:58","51.7","51.2","98","29.85","329","1.2","4.8","0.03","0.00"
"08:24:59","51.6","50.9","97.3","29.85","317","2.6","6","0.03","0.00"
"08:29:56","51.7","51.1","97.6","29.85","304","0.9","5.8","0.03","0.00"
"08:34:57","52","51.4","97.6","29.85","338","1.1","4.8","0.03","0.00"
"08:39:58","52.1","51.3","97","29.85","204","0.9","4.8","0.03","0.00"
"08:44:59","52.1","51.4","97.1","29.85","348","1.8","4.6","0.03","0.00"
"08:49:56","52.3","51.6","97.4","29.85","13","1.1","4.8","0.03","0.00"
"08:54:57","52.3","51.5","97","29.85","11","0.9","3.6","0.03","0.00"
"08:59:58","52.5","51.7","97","29.85","1","1.8","6","0.03","0.00"
"09:04:58","52.7","52","97.3","29.84","339","0.4","3.6","0.03","0.00"
"09:09:57","52.9","52.2","97.3","29.84","317","0.9","3.6","0.03","0.00"
"09:14:59","52.9","52.1","97","29.86","296","2.1","4.8","0.03","0.00"
"09:19:56","52.8","52","97","29.86","271","1.3","4.8","0.03","0.00"
"09:24:56","53","52.2","97","29.86","332","3","7.2","0.03","0.00"
"09:29:56","53.1","52.2","96.7","29.86","332","1.9","4.8","0.03","0.00"
"09:34:57","53.4","52.6","96.9","29.85","290","1.8","6","0.03","0.00"
"09:39:59","53.4","52.3","96","29.85","314","1.4","5.8","0.03","0.00"
"09:44:59","53.6","52.7","96.5","29.85","332","1.7","6","0.03","0.00"
"09:49:56","53.8","52.7","96","29.85","330","1","3.6","0.03","0.00"
"09:54:56","53.9","52.6","95.2","29.85","338","1.7","4.8","0.03","0.00"
"09:59:57","54.2","52.7","94.8","29.85","320","0.6","3.6","0.03","0.00"
"10:04:57","54.7","53.2","94.8","29.85","330","1.6","4.8","0.03","0.00"
"10:09:57","55","53.2","93.8","29.85","328","1","4.6","0.03","0.00"
"10:14:58","55.5","53.6","93.3","29.86","332","0.4","3.6","0.03","0.00"
"10:19:59","56","53.8","92.2","29.86","332","0.1","2.3","0.03","0.00"
"10:24:56","56.3","53.6","90.9","29.86","340","0.6","4.8","0.03","0.00"
"10:29:57","56.4","53.7","90.5","29.86","333","0.6","2.4","0.03","0.00"
"10:34:57","56.4","53.8","90.9","29.85","329","0.5","2.4","0.03","0.00"
"10:39:58","56.2","53.3","90","29.85","334","1.9","6","0.03","0.00"
"10:44:58","55.9","52.8","89.4","29.85","331","0.3","3.5","0.03","0.00"
"10:49:59","56","53.2","90.5","29.85","302","0.9","7.2","0.03","0.00"
"10:54:59","56.1","53.2","90","29.85","351","2.4","6.9","0.03","0.00"
"10:59:56","56.2","53.5","90.6","29.85","336","1.4","4.6","0.03","0.00"
"11:04:57","56.3","53.6","90.4","29.85","351","0.8","6","0.03","0.00"
"11:09:56","56.4","53.5","90.3","29.85","350","0","2.4","0.03","0.00"
"11:14:57","56.4","53.6","90.1","29.85","348","0.7","4.8","0.03","0.00"
"11:19:59","56.5","53.6","90","29.85","348","0","1.2","0.03","0.00"
"11:24:56","56.7","53.8","89.8","29.85","347","0.3","3.6","0.03","0.00"
"11:29:57","56.9","53.6","88.8","29.85","347","0","0","0.03","0.00"
"11:34:58","57.1","53.7","88.5","29.85","347","0.3","2.4","0.03","0.00"
"11:39:56","57.3","54.1","89","29.85","347","0","1.2","0.03","0.00"
"11:44:58","57.5","54","88.2","29.85","346","1.4","6","0.03","0.00"
"11:49:59","57.5","54","87.9","29.85","302","0.8","5.8","0.03","0.00"
"11:54:56","57.7","54.3","88.3","29.85","4","0","1.2","0.03","0.00"
"11:59:57","57.8","53.8","86.6","29.85","344","0.1","1.2","0.03","0.00"
"12:04:58","57.8","54.3","88.2","29.85","332","0.2","3.6","0.03","0.00"
"12:09:56","58.2","54.8","88.4","29.85","107","0","1.2","0.03","0.00"
"12:14:56","58.4","54.5","86.9","29.85","115","0","1.2","0.03","0.00"
"12:19:58","58.7","54.5","86","29.83","40","0","0","0.03","0.00"
"12:24:59","58.9","54.9","86.7","29.83","323","0","0","0.03","0.00"
"12:29:59","59.2","54.9","85.9","29.84","349","1","4.8","0.03","0.00"
"12:34:59","59.3","55.2","86.3","29.84","349","0","1.2","0.03","0.00"
"12:39:57","59.4","55","85.5","29.84","343","0.1","2.4","0.03","0.00"
"12:44:57","59.5","54.9","84.7","29.84","331","0","0","0.03","0.00"
"12:49:58","59.6","55.2","85.5","29.83","284","0","0","0.03","0.00"
"12:54:59","59.6","55.1","85","29.83","337","0.1","2.4","0.03","0.00"
"12:59:59","59.8","55.2","84.9","29.83","341","0.3","3.5","0.03","0.00"
"13:02:21","59.9","55.3","84.6","29.83","275","0","0","0.03","0.00"
"13:11:52","60.1","55.2","84","29.83","345","0.1","1.2","0.03","0.00"
"13:19:56","60.1","55.6","85","29.82","345","0","0","0.03","0.00"
"13:24:56","60.1","55","83.2","29.82","345","0","0","0.03","0.00"
"13:29:56","60.4","55.5","83.9","29.82","345","0","0","0.03","0.00"
"13:34:58","60.6","55.4","82.9","29.81","342","0","0","0.03","0.00"
"13:39:58","60.9","55.7","83.1","29.81","342","0","0","0.03","0.00"
"13:44:57","61.2","55.7","82.2","29.81","342","0","0","0.03","0.00"
"13:49:59","61","55.2","81.4","29.80","220","0","0","0.03","0.00"
"13:54:58","60.8","55.3","82.2","29.80","220","0","0","0.03","0.00"
"13:59:56","61","55.8","83.1","29.80","339","0","1.2","0.03","0.00"
"14:04:59","61.1","55.7","82.2","29.79","350","0","0","0.03","0.00"
"14:09:57","61.1","55.9","82.9","29.79","355","0","0","0.03","0.00"
"14:14:59","61.5","56.1","82.6","29.79","272","0","0","0.03","0.00"
"14:19:57","61.8","56.3","82.3","29.78","272","0","0","0.03","0.00"
"14:20:56","61.9","56.3","82","29.78","272","0","0","0.03","0.00"
"14:44:58","62.3","56.7","81.8","29.79","244","0","0","0.03","0.00"
"14:49:56","62.5","56.7","81.2","29.78","227","0","0","0.03","0.00"
"14:54:58","62.7","56.5","80.1","29.78","227","0","0","0.03","0.00"
"14:59:56","62.9","56.7","80.3","29.78","190","0","0","0.03","0.00"
"15:04:59","63.1","57","80.5","29.78","323","0","0","0.03","0.00"
"15:09:57","63.2","56.3","78.2","29.78","339","0.1","2.4","0.03","0.00"
"15:14:56","63.1","56.3","78.5","29.79","204","0","1.2","0.03","0.00"
"15:19:59","62.8","55.9","78.2","29.79","204","0","1.2","0.03","0.00"
"15:24:58","62.8","55.9","78.4","29.79","204","0","0","0.03","0.00"
"15:29:56","62.7","55.7","78","29.79","204","0","0","0.03","0.00"
"15:34:58","62.5","55.7","78.4","29.78","204","0","0","0.03","0.00"
"15:39:57","62.7","56.1","79.2","29.78","244","0","1.2","0.03","0.00"
"15:44:59","63.1","56.6","79.3","29.78","246","1","4.8","0.03","0.00"
"15:49:57","63.6","56.5","77.5","29.78","244","0.5","3.6","0.03","0.00"
"15:54:59","64.7","57.4","77.4","29.78","244","0","0","0.03","0.00"
"15:59:57","65.7","58.2","76.9","29.78","163","0","0","0.03","0.00"
"16:04:56","66.2","58.7","77","29.78","48","0","0","0.03","0.00"
"16:09:58","66.7","58","73.7","29.78","81","0","1.2","0.03","0.00"
"16:14:57","65.6","57.2","74.4","29.78","114","0","2.4","0.03","0.00"
"16:19:59","65.4","57.3","74.9","29.78","114","0","0","0.03","0.00"
"16:24:57","65.1","56.5","74","29.78","114","0","0","0.03","0.00"
"16:29:59","64.4","55.7","73.5","29.78","188","0","1.2","0.03","0.00"
"16:34:57","63.8","55.8","75.2","29.77","188","0","1.2","0.03","0.00"
"16:39:56","63.8","55.8","75.4","29.77","189","0","0","0.03","0.00"
"16:44:58","64.1","56.2","75.7","29.77","189","0","0","0.03","0.00"
"16:49:56","64.4","56.6","75.7","29.76","128","0","1.2","0.03","0.00"
"16:54:58","64","56","75.1","29.76","126","0","2.4","0.03","0.00"
"16:59:56","63.7","55.7","75.2","29.77","127","0","0","0.03","0.00"
"17:04:59","64","56.4","76.5","29.77","127","0","0","0.03","0.00"
"17:09:57","64.5","56.6","75.7","29.77","123","0.8","3.6","0.03","0.00"
"17:14:56","65","57.4","76.4","29.77","122","0.9","3.6","0.03","0.00"
"17:19:57","65.4","57.2","74.8","29.76","71","0","3.5","0.03","0.00"
"17:24:59","65.1","56.9","74.7","29.76","126","0.1","2.4","0.03","0.00"
"17:29:57","65","56.7","74.5","29.76","118","0","0","0.03","0.00"
"17:34:59","65.2","57.2","75.2","29.75","114","0","1.2","0.03","0.00"
"17:39:58","65.5","57.2","74.4","29.75","113","0","0","0.03","0.00"
"17:44:59","65.6","57","73.8","29.75","117","0","0","0.03","0.00"
"17:49:57","66.1","57.6","73.9","29.75","117","0","4.8","0.03","0.00"
"17:54:59","65.9","57.2","73.6","29.75","115","1.3","4.6","0.03","0.00"
"17:59:56","66.1","57.5","73.9","29.75","132","1.8","7.2","0.03","0.00"
"18:04:59","66.4","57.4","72.8","29.75","124","0.7","4.8","0.03","0.00"
"18:09:57","66","57.1","72.8","29.75","127","1","4.8","0.03","0.00"
"18:14:58","65.9","57.3","73.7","29.75","128","0.9","4.8","0.03","0.00"
"18:19:59","65.9","57.3","73.7","29.74","126","1.1","3.6","0.03","0.00"
"18:24:57","65.8","57.4","74.3","29.74","124","0.1","1.2","0.03","0.00"
"18:29:58","65.7","57","73.5","29.74","124","0.5","2.4","0.03","0.00"
"18:34:59","65.6","57.1","74","29.74","81","0.1","1.2","0.03","0.00"
"18:39:57","65.5","56.9","73.8","29.74","78","0.8","2.4","0.03","0.00"
"18:44:59","65.3","56.8","74","29.75","79","0.3","2.3","0.03","0.00"
"18:49:56","65.2","56.7","74.1","29.75","79","0.3","2.4","0.03","0.00"
"18:54:58","65","56.8","74.8","29.75","101","0.7","3.6","0.03","0.00"
"18:59:59","64.9","57","75.5","29.75","94","0.7","3.6","0.03","0.00"
"19:04:58","64.8","57.1","76","29.74","91","0.4","3.6","0.03","0.00"
"19:09:56","64.6","56.9","76","29.74","194","0.5","2.4","0.03","0.00"
"19:14:59","64.5","56.8","76","29.75","189","0.4","3.6","0.03","0.00"
"19:19:56","64.3","56.8","76.8","29.75","188","0.5","2.4","0.03","0.00"
"19:24:58","64.1","56.7","77","29.75","187","0","0","0.03","0.00"
"19:29:59","63.9","56.7","77.4","29.75","187","0","0","0.03","0.00"
"19:34:57","63.7","56.7","78.2","29.74","197","0.4","2.4","0.03","0.00"
"19:39:56","63.4","56.7","78.8","29.74","198","0.4","2.4","0.03","0.00"
"19:44:58","63.2","56.6","79","29.74","190","0.6","3.6","0.03","0.00"
"19:49:56","63.1","56.5","79.1","29.73","182","0","1.2","0.03","0.00"
"19:54:58","62.9","56.6","80","29.73","184","0","0","0.03","0.00"
"19:59:56","62.7","56.4","80","29.73","184","0","0","0.03","0.00"
"20:04:59","62.5","56.2","80","29.73","184","0","0","0.03","0.00"
"20:09:57","62.4","56.5","81","29.73","184","0","0","0.03","0.00"
"20:14:56","62.2","56.5","81.7","29.74","184","0","0","0.03","0.00"
"20:19:58","61.9","56.6","82.8","29.74","182","0","0","0.03","0.00"
"20:24:56","61.6","56.1","82.3","29.74","182","0","0","0.03","0.00"
"20:29:58","61.4","56.5","84","29.75","182","0","0","0.03","0.00"
"20:34:56","60.8","56.3","84.9","29.75","182","0","0","0.03","0.00"
"20:39:59","60.5","56","85","29.75","182","0","0","0.03","0.00"
"20:44:57","60.4","56","85.4","29.75","182","0","0","0.03","0.00"
"20:49:59","60.4","56.2","86","29.74","182","0","0","0.03","0.00"
"20:54:57","60.1","56","86.3","29.74","182","0","0","0.03","0.00"
"20:59:59","59.7","55.9","87.3","29.75","182","0","0","0.03","0.00"
"21:04:58","59.5","56.1","88.6","29.75","182","0","0","0.03","0.00"
"21:09:56","59.4","56.2","89","29.75","182","0","0","0.03","0.00"
"21:14:58","59.3","56.1","89","29.75","182","0","0","0.03","0.00"
"21:19:57","59.2","56","89","29.75","182","0","0","0.03","0.00"
"21:24:56","59.1","56","89.5","29.75","182","0","0","0.03","0.00"
"21:29:57","59.3","56.1","89","29.75","182","0","0","0.03","0.00"
"21:34:59","59.6","56.4","88.9","29.75","131","0","2.4","0.03","0.00"
"21:39:57","60.2","56.6","87.7","29.75","133","0.1","6","0.03","0.00"
"21:44:59","60.8","56.8","86.8","29.75","119","0.2","5.8","0.03","0.00"
"21:49:57","61.1","56.9","86","29.75","116","0","4.8","0.03","0.00"
"21:54:59","61.2","57","86","29.75","133","0.3","6","0.03","0.00"
"21:59:56","61.2","57","86.1","29.75","132","0","0","0.03","0.00"
"22:04:59","61.1","57.2","87","29.74","132","0","0","0.03","0.00"
"22:09:57","60.9","57","87","29.74","132","0","0","0.03","0.00"
"22:14:59","60.7","57.1","87.7","29.74","132","0","0","0.03","0.00"
"22:19:57","60.7","57.1","88","29.73","132","0","0","0.03","0.00"
"22:24:59","60.6","57","88","29.73","132","0","0","0.03","0.00"
"22:29:57","60.4","57","88.7","29.73","132","0","0","0.03","0.00"
"22:34:59","60.4","57.1","89","29.73","132","0","0","0.03","0.00"
"22:39:57","60.3","57","89","29.73","132","0","0","0.03","0.00"
"22:44:56","60.2","56.9","89","29.73","132","0","0","0.03","0.00"
"22:49:58","60.1","57.1","89.5","29.72","132","0","0","0.03","0.00"
"22:54:56","60.1","57.2","90","29.72","132","0","1.2","0.03","0.00"
"22:59:57","60.1","57.4","90.5","29.72","124","0","1.2","0.03","0.00"
"23:04:56","60.2","57.3","90","29.71","120","0.1","1.2","0.03","0.00"
"23:09:59","60.4","57.5","90","29.71","110","0","0","0.03","0.00"
"23:14:57","60.4","57.5","90","29.71","111","0","0","0.03","0.00"
"23:19:58","60.4","57.5","90","29.71","111","0","0","0.03","0.00"
"23:24:56","60.4","57.5","90","29.71","111","0","0","0.03","0.00"
"23:29:58","60.3","57.4","90","29.71","115","0","0","0.03","0.00"
"23:34:56","60.3","57.4","90","29.70","115","0","0","0.03","0.00"
"23:39:58","60.3","57.4","90","29.70","115","0","1.2","0.03","0.00"
"23:44:59","60.2","57.3","90","29.70","115","0","0","0.03","0.00"
"23:49:57","60.2","57.3","90","29.70","141","0.1","1.2","0.03","0.00"
"23:54:54","60.2","57.3","90","29.70","150","0","0","0.03","0.00"
